Total_Precipitation_Accumulation
1.10 1.24 1.15 0.95 0.85 0.81 0.74 0.70 0.75 0.81 0.86 0.89 0.84 0.77 0.72 0.74 0.86 1.00 1.04 1.11 1.18 1.22 1.28 1.28 1.26 1.27 1.32 1.26 1.35 1.48 1.65 1.79 1.66 1.54 1.46 1.41 1.34 1.25 1.11 0.91 0.80 0.71 0.63
1.42 1.61 1.52 1.15 0.94 0.84 0.68 0.61 0.67 0.77 0.86 0.88 0.82 0.74 0.70 0.76 0.89 1.01 1.13 1.33 1.46 1.40 1.31 1.23 1.14 1.21 1.30 1.30 1.38 1.39 1.46 1.68 1.67 1.63 1.61 1.63 1.54 1.36 1.26 1.12 0.92 0.79 0.75
1.26 1.47 1.32 1.00 0.79 0.70 0.65 0.62 0.72 0.83 0.88 0.87 0.85 0.86 0.94 1.02 1.13 1.23 1.28 1.41 1.44 1.34 1.29 1.22 1.15 1.18 1.20 1.28 1.37 1.39 1.38 1.44 1.59 1.61 1.62 1.70 1.68 1.48 1.32 1.18 1.07 1.09 0.99
0.82 1.03 0.98 0.80 0.70 0.62 0.62 0.64 0.66 0.72 0.78 0.84 0.99 1.17 1.27 1.32 1.35 1.39 1.37 1.33 1.29 1.19 1.11 1.05 1.08 1.18 1.22 1.23 1.20 1.22 1.26 1.35 1.44 1.48 1.54 1.66 1.72 1.65 1.45 1.32 1.30 1.25 1.15
0.72 0.90 0.85 0.75 0.70 0.60 0.54 0.56 0.64 0.74 0.81 0.95 1.11 1.21 1.21 1.23 1.30 1.37 1.37 1.30 1.21 1.10 0.98 0.82 0.79 0.95 1.09 1.13 1.06 1.08 1.13 1.20 1.23 1.31 1.40 1.54 1.64 1.74 1.56 1.37 1.31 1.36 1.31
0.66 0.87 0.87 0.77 0.69 0.57 0.54 0.61 0.75 0.82 0.90 1.05 1.12 1.14 1.09 0.88 0.86 0.93 0.97 0.99 1.01 0.96 0.85 0.78 0.76 0.76 0.78 0.80 0.83 0.87 0.93 1.01 1.14 1.30 1.39 1.45 1.47 1.58 1.67 1.62 1.55 1.51 1.48
0.65 0.82 0.90 0.87 0.82 0.73 0.65 0.73 0.81 0.88 0.96 1.04 1.06 1.05 1.02 0.97 0.85 0.73 0.72 0.76 0.79 0.79 0.78 0.81 0.67 0.58 0.63 0.64 0.68 0.68 0.66 0.69 0.80 1.02 1.22 1.28 1.40 1.45 1.68 1.71 1.73 1.82 1.81
0.69 0.85 0.91 0.91 0.93 0.98 0.91 0.91 0.98 1.05 1.08 1.11 1.08 1.05 1.08 1.05 0.92 0.77 0.67 0.61 0.69 0.74 0.75 0.78 0.77 0.73 0.73 0.77 0.77 0.72 0.63 0.59 0.59 0.65 0.84 1.07 1.29 1.52 1.62 1.69 1.78 1.84 1.83
0.75 0.88 0.98 1.06 1.14 1.17 1.15 1.20 1.30 1.36 1.30 1.28 1.28 1.26 1.28 1.27 1.08 0.80 0.68 0.67 0.78 0.79 0.79 0.79 0.80 0.79 0.79 0.69 0.68 0.67 0.67 0.67 0.56 0.56 0.63 0.83 1.02 1.12 1.35 1.56 1.69 1.63 1.55
1.04 1.09 1.25 1.43 1.57 1.63 1.62 1.59 1.59 1.65 1.55 1.48 1.38 1.35 1.33 1.36 1.28 0.93 0.76 0.79 0.95 0.98 0.99 0.92 0.78 0.70 0.66 0.56 0.58 0.70 0.68 0.67 0.72 0.66 0.57 0.62 0.74 0.87 0.96 1.08 1.31 1.45 1.34
1.28 1.35 1.54 1.82 1.95 1.89 1.85 1.77 1.72 1.73 1.73 1.68 1.56 1.52 1.52 1.50 1.42 1.07 0.92 0.97 1.11 1.20 1.16 1.10 1.01 0.84 0.64 0.58 0.57 0.64 0.67 0.71 0.81 0.85 0.83 0.80 0.89 1.00 0.96 0.93 1.04 1.21 1.24
1.44 1.61 1.81 2.02 1.98 1.86 1.99 1.91 1.87 1.92 1.90 1.84 1.80 1.71 1.68 1.66 1.50 1.18 0.93 0.98 1.14 1.30 1.34 1.28 1.18 0.96 0.73 0.64 0.60 0.58 0.56 0.55 0.63 0.75 0.79 0.78 0.82 0.92 0.99 0.97 1.01 1.05 1.10
1.59 1.72 1.83 1.91 2.04 2.18 2.23 2.16 2.08 2.03 2.01 1.90 1.84 1.76 1.70 1.70 1.64 1.20 0.96 1.00 1.10 1.21 1.39 1.40 1.17 0.95 0.79 0.64 0.59 0.60 0.53 0.49 0.59 0.65 0.65 0.66 0.66 0.77 0.97 1.10 1.14 1.15 1.12
1.46 1.47 1.59 1.76 1.87 1.97 2.18 2.23 2.20 2.10 2.07 2.02 1.90 1.78 1.72 1.75 1.72 1.39 1.09 1.05 1.09 1.11 1.21 1.26 1.13 0.96 0.84 0.73 0.67 0.64 0.60 0.61 0.68 0.70 0.71 0.74 0.77 0.85 0.96 1.06 1.16 1.20 1.16
1.46 1.40 1.40 1.47 1.61 1.71 1.83 1.93 1.94 1.96 1.77 1.69 1.59 1.51 1.50 1.56 1.52 1.27 1.11 1.12 1.24 1.29 1.25 1.29 1.30 1.17 1.04 0.94 0.90 0.91 0.91 0.86 0.79 0.81 0.85 0.87 0.87 0.88 0.95 1.03 1.10 1.13 1.07
1.43 1.36 1.35 1.38 1.48 1.57 1.63 1.58 1.41 1.35 1.17 1.05 1.03 1.01 1.02 1.06 1.14 1.00 0.89 0.99 1.16 1.22 1.17 1.19 1.30 1.29 1.21 1.12 1.06 1.07 1.06 1.01 0.95 0.96 0.95 0.94 0.92 0.90 0.93 0.98 1.01 1.02 0.99
1.43 1.31 1.23 1.20 1.25 1.30 1.41 1.56 1.62 1.40 1.17 0.98 0.87 0.77 0.75 0.81 0.90 0.90 0.86 0.91 1.01 1.05 1.03 1.08 1.17 1.23 1.19 1.15 1.10 1.07 1.03 1.05 1.07 1.03 0.99 1.00 0.98 0.93 0.91 0.94 0.96 1.01 1.00
1.32 1.22 1.12 1.12 1.17 1.21 1.28 1.40 1.55 1.56 1.32 1.00 0.86 0.75 0.64 0.64 0.67 0.71 0.72 0.77 0.86 0.90 0.91 0.97 1.03 1.08 1.09 1.10 1.10 1.09 1.06 1.08 1.06 1.05 1.01 0.99 0.99 0.94 0.94 0.95 0.92 0.94 1.00
1.17 1.09 1.02 1.05 1.08 1.06 1.12 1.20 1.30 1.36 1.28 1.12 0.94 0.76 0.62 0.53 0.55 0.59 0.59 0.66 0.81 0.86 0.85 0.89 0.91 0.93 0.97 1.01 1.01 1.06 1.05 1.02 1.01 1.04 1.01 0.97 0.98 0.99 0.98 0.98 0.98 0.99 0.99
1.07 0.89 0.83 0.89 0.94 0.96 1.03 1.10 1.14 1.21 1.20 1.13 1.01 0.77 0.57 0.51 0.59 0.65 0.65 0.75 0.85 0.86 0.82 0.85 0.81 0.81 0.86 0.92 0.97 1.03 1.02 1.04 1.06 1.03 1.00 0.99 0.97 0.98 0.95 0.96 0.99 1.01 1.01
0.99 0.84 0.64 0.62 0.72 0.80 0.90 0.99 1.03 1.04 1.07 1.05 0.90 0.64 0.45 0.41 0.54 0.69 0.79 0.83 0.84 0.83 0.78 0.74 0.70 0.72 0.77 0.83 0.87 0.90 0.95 1.02 1.01 1.00 1.03 1.00 0.95 0.96 0.94 0.96 0.95 0.96 0.99
0.92 0.84 0.69 0.60 0.64 0.69 0.77 0.88 0.90 0.87 0.87 0.86 0.76 0.57 0.42 0.39 0.52 0.65 0.72 0.72 0.71 0.73 0.70 0.66 0.64 0.69 0.71 0.74 0.79 0.85 0.90 0.93 0.94 0.97 0.99 0.98 0.97 0.96 0.96 1.00 1.00 0.98 0.99
0.88 0.80 0.69 0.62 0.64 0.63 0.66 0.77 0.79 0.76 0.73 0.69 0.63 0.56 0.47 0.49 0.56 0.65 0.67 0.66 0.66 0.64 0.63 0.62 0.60 0.59 0.64 0.67 0.69 0.75 0.82 0.82 0.84 0.87 0.93 0.97 0.97 0.98 1.01 1.03 0.99 0.94 0.95
0.81 0.76 0.65 0.60 0.62 0.67 0.67 0.70 0.66 0.63 0.61 0.57 0.54 0.52 0.52 0.56 0.59 0.60 0.61 0.60 0.60 0.56 0.54 0.55 0.56 0.56 0.59 0.64 0.64 0.64 0.67 0.69 0.69 0.73 0.78 0.83 0.86 0.93 0.99 1.02 0.98 0.95 1.00
0.78 0.79 0.69 0.59 0.58 0.61 0.62 0.64 0.62 0.61 0.56 0.50 0.50 0.50 0.52 0.54 0.55 0.58 0.58 0.55 0.51 0.50 0.47 0.48 0.54 0.54 0.50 0.51 0.52 0.52 0.56 0.54 0.53 0.60 0.69 0.77 0.79 0.85 0.97 1.01 1.00 0.99 1.05
0.71 0.73 0.67 0.58 0.53 0.53 0.55 0.62 0.64 0.59 0.54 0.47 0.47 0.50 0.47 0.44 0.44 0.46 0.45 0.43 0.43 0.43 0.43 0.45 0.47 0.48 0.47 0.45 0.44 0.45 0.43 0.39 0.41 0.50 0.54 0.63 0.72 0.79 0.87 0.92 0.91 0.99 1.06